DAL2293 KMSY-KSAT

Flight info

Callsign DAL2293
Flight time 1h 37m
Altitude 28000
Route LFT LCH CAAGE QERVO3
Aircraft B738/M-SDE2E3FGHIRWXY/LB1

Departure

Time 2026-05-09 00:01
Airport Louis Armstrong New Orleans International Airport (KMSY)

Arrival

Time 2026-05-09 01:38
Airport San Antonio International Airport (KSAT)
Time Latitude Longitude Altitude Speed Heading
2026-05-08 23:26 29.99454 -90.25611 13 ft 0 kts 280°
2026-05-08 23:50 29.99453 -90.25604 12 ft 2 kts 280°
2026-05-08 23:51 29.99451 -90.25592 12 ft 1 kts 280°
2026-05-08 23:51 29.99451 -90.25575 12 ft 2 kts 252°
2026-05-08 23:51 29.99458 -90.25560 12 ft 2 kts 227°
2026-05-08 23:51 29.99470 -90.25549 12 ft 2 kts 201°
2026-05-08 23:52 29.99479 -90.25547 12 ft 1 kts 184°
2026-05-08 23:52 29.99486 -90.25546 12 ft 0 kts 183°
2026-05-08 23:53 29.99480 -90.25547 12 ft 2 kts 182°
2026-05-08 23:54 29.99463 -90.25548 12 ft 2 kts 182°
2026-05-08 23:54 29.99438 -90.25549 12 ft 4 kts 182°
2026-05-08 23:54 29.99383 -90.25552 12 ft 12 kts 182°
2026-05-08 23:55 29.99211 -90.25604 12 ft 13 kts 256°
2026-05-08 23:55 29.99220 -90.25720 12 ft 18 kts 279°
2026-05-08 23:55 29.99285 -90.25846 12 ft 18 kts 339°
2026-05-08 23:55 29.99357 -90.25952 12 ft 19 kts 285°
2026-05-08 23:56 29.99396 -90.26120 12 ft 22 kts 287°
2026-05-08 23:56 29.99436 -90.26284 12 ft 20 kts 285°
2026-05-08 23:56 29.99476 -90.26446 12 ft 21 kts 285°
2026-05-08 23:56 29.99515 -90.26611 12 ft 20 kts 284°
2026-05-08 23:57 29.99552 -90.26764 12 ft 20 kts 286°
2026-05-08 23:57 29.99591 -90.26931 12 ft 21 kts 284°
2026-05-08 23:57 29.99629 -90.27092 12 ft 21 kts 285°
2026-05-08 23:57 29.99671 -90.27258 12 ft 21 kts 285°
2026-05-08 23:58 29.99710 -90.27423 12 ft 24 kts 286°
2026-05-08 23:58 29.99760 -90.27632 12 ft 27 kts 284°
2026-05-08 23:58 29.99806 -90.27835 12 ft 24 kts 285°
2026-05-08 23:58 29.99835 -90.27993 12 ft 12 kts 252°
2026-05-08 23:59 29.99787 -90.28042 12 ft 6 kts 191°
2026-05-08 23:59 29.99723 -90.28058 12 ft 13 kts 192°
2026-05-08 23:59 29.99640 -90.28062 12 ft 10 kts 132°
2026-05-08 23:59 29.99625 -90.28009 12 ft 2 kts 104°
2026-05-09 00:00 29.99624 -90.28007 12 ft 1 kts 104°
2026-05-09 00:00 29.99573 -90.27793 13 ft 67 kts 108°
2026-05-09 00:00 29.99374 -90.26976 13 ft 141 kts 104°
2026-05-09 00:00 29.99083 -90.25708 327 ft 175 kts 104°
2026-05-09 00:01 29.98788 -90.24359 1184 ft 182 kts 112°
2026-05-09 00:01 29.97925 -90.23233 1866 ft 202 kts 152°
2026-05-09 00:01 29.96489 -90.23025 2514 ft 222 kts 191°
2026-05-09 00:01 29.95077 -90.23802 3262 ft 234 kts 218°
2026-05-09 00:02 29.94024 -90.25291 3923 ft 250 kts 244°
2026-05-09 00:02 29.93630 -90.27229 4847 ft 254 kts 271°
2026-05-09 00:02 29.94162 -90.29103 5904 ft 255 kts 304°
2026-05-09 00:02 29.95571 -90.30330 6770 ft 267 kts 337°
2026-05-09 00:03 29.97429 -90.30546 7630 ft 277 kts 360°
2026-05-09 00:03 29.99348 -90.30497 8399 ft 275 kts 343°
2026-05-09 00:03 30.01012 -90.31400 9236 ft 260 kts 310°
2026-05-09 00:03 30.01867 -90.33131 10070 ft 251 kts 278°
2026-05-09 00:04 30.01709 -90.35146 10852 ft 253 kts 254°
2026-05-09 00:04 30.01174 -90.37112 11587 ft 257 kts 257°
2026-05-09 00:04 30.00899 -90.39128 12373 ft 257 kts 268°
2026-05-09 00:04 30.00973 -90.41196 13065 ft 262 kts 275°
2026-05-09 00:05 30.01226 -90.43263 13807 ft 264 kts 276°
2026-05-09 00:05 30.01515 -90.45340 14548 ft 264 kts 277°
2026-05-09 00:05 30.01794 -90.47422 15245 ft 266 kts 276°
2026-05-09 00:05 30.02057 -90.49528 15886 ft 268 kts 276°
2026-05-09 00:06 30.02308 -90.51667 16523 ft 271 kts 275°
2026-05-09 00:06 30.02556 -90.53812 17186 ft 272 kts 275°
2026-05-09 00:06 30.02811 -90.55975 17761 ft 275 kts 275°
2026-05-09 00:06 30.03074 -90.58161 18350 ft 277 kts 275°
2026-05-09 00:07 30.03338 -90.60372 18838 ft 283 kts 275°
2026-05-09 00:07 30.03612 -90.62631 19458 ft 283 kts 276°
2026-05-09 00:07 30.03892 -90.64903 19931 ft 289 kts 276°
2026-05-09 00:07 30.04170 -90.67200 20505 ft 290 kts 275°
2026-05-09 00:08 30.04453 -90.69509 21028 ft 293 kts 275°
2026-05-09 00:08 30.04742 -90.71834 21529 ft 295 kts 275°
2026-05-09 00:08 30.05033 -90.74182 22037 ft 297 kts 275°
2026-05-09 00:08 30.05315 -90.76543 22502 ft 300 kts 275°
2026-05-09 00:09 30.05599 -90.78936 22978 ft 303 kts 275°
2026-05-09 00:09 30.05885 -90.81330 23534 ft 303 kts 274°
2026-05-09 00:09 30.06168 -90.83743 23965 ft 307 kts 275°
2026-05-09 00:09 30.06453 -90.86181 24460 ft 308 kts 274°
2026-05-09 00:10 30.06739 -90.88648 24845 ft 313 kts 275°
2026-05-09 00:10 30.07034 -90.91162 25144 ft 320 kts 275°
2026-05-09 00:10 30.07337 -90.93707 25604 ft 322 kts 275°
2026-05-09 00:10 30.07642 -90.96250 26185 ft 320 kts 274°
2026-05-09 00:11 30.07939 -90.98759 26853 ft 314 kts 274°
2026-05-09 00:11 30.08228 -91.01226 27474 ft 309 kts 274°
2026-05-09 00:11 30.08516 -91.03676 27888 ft 311 kts 274°
2026-05-09 00:11 30.08805 -91.06175 27933 ft 317 kts 274°
2026-05-09 00:12 30.09100 -91.08686 27930 ft 314 kts 274°
2026-05-09 00:12 30.09396 -91.11158 27926 ft 308 kts 274°
2026-05-09 00:12 30.09688 -91.13583 27931 ft 304 kts 274°
2026-05-09 00:12 30.09969 -91.15992 27930 ft 304 kts 273°
2026-05-09 00:13 30.10246 -91.18413 27930 ft 305 kts 273°
2026-05-09 00:13 30.10524 -91.20843 27923 ft 306 kts 274°
2026-05-09 00:13 30.10808 -91.23273 27921 ft 306 kts 273°
2026-05-09 00:13 30.11098 -91.25700 27921 ft 304 kts 274°
2026-05-09 00:14 30.11378 -91.28125 27914 ft 304 kts 274°
2026-05-09 00:14 30.11653 -91.30549 27910 ft 305 kts 272°
2026-05-09 00:14 30.11915 -91.32975 27909 ft 304 kts 273°
2026-05-09 00:14 30.12186 -91.35394 27905 ft 303 kts 273°
2026-05-09 00:15 30.12467 -91.37799 27907 ft 303 kts 274°
2026-05-09 00:15 30.12752 -91.40220 27912 ft 304 kts 273°
2026-05-09 00:15 30.13035 -91.42640 27902 ft 303 kts 273°
2026-05-09 00:15 30.13317 -91.45050 27909 ft 303 kts 273°
2026-05-09 00:16 30.13592 -91.47459 27913 ft 304 kts 273°
2026-05-09 00:16 30.13864 -91.49869 27911 ft 303 kts 272°
2026-05-09 00:16 30.14136 -91.52268 27918 ft 302 kts 273°
2026-05-09 00:16 30.14405 -91.54662 27920 ft 301 kts 273°
2026-05-09 00:17 30.14677 -91.57061 27925 ft 302 kts 273°
2026-05-09 00:17 30.14964 -91.59463 27922 ft 302 kts 273°
2026-05-09 00:17 30.15244 -91.61858 27922 ft 301 kts 273°
2026-05-09 00:17 30.15511 -91.64246 27916 ft 300 kts 272°
2026-05-09 00:18 30.15771 -91.66629 27917 ft 300 kts 272°
2026-05-09 00:18 30.16033 -91.69017 27921 ft 300 kts 272°
2026-05-09 00:18 30.16298 -91.71407 27914 ft 300 kts 272°
2026-05-09 00:18 30.16568 -91.73804 27920 ft 301 kts 272°
2026-05-09 00:19 30.16833 -91.76197 27920 ft 301 kts 272°
2026-05-09 00:19 30.17102 -91.78594 27922 ft 299 kts 272°
2026-05-09 00:19 30.17369 -91.80969 27919 ft 299 kts 272°
2026-05-09 00:19 30.17633 -91.83342 27919 ft 299 kts 272°
2026-05-09 00:20 30.17898 -91.85720 27920 ft 299 kts 272°
2026-05-09 00:20 30.18166 -91.88105 27921 ft 300 kts 272°
2026-05-09 00:20 30.18433 -91.90485 27916 ft 299 kts 272°
2026-05-09 00:20 30.18695 -91.92854 27917 ft 297 kts 272°
2026-05-09 00:21 30.18956 -91.95223 27914 ft 296 kts 272°
2026-05-09 00:21 30.19210 -91.97587 27922 ft 297 kts 272°
2026-05-09 00:21 30.19354 -91.99950 27911 ft 293 kts 266°
2026-05-09 00:21 30.19315 -92.02291 27913 ft 292 kts 264°
2026-05-09 00:22 30.19200 -92.04629 27916 ft 292 kts 264°
2026-05-09 00:22 30.19076 -92.06979 27922 ft 293 kts 263°
2026-05-09 00:22 30.18954 -92.09322 27915 ft 293 kts 264°
2026-05-09 00:22 30.18843 -92.11682 27913 ft 295 kts 264°
2026-05-09 00:23 30.18742 -92.14042 27916 ft 294 kts 264°
2026-05-09 00:23 30.18641 -92.16397 27913 ft 294 kts 264°
2026-05-09 00:23 30.18537 -92.18758 27910 ft 294 kts 264°
2026-05-09 00:23 30.18434 -92.21117 27913 ft 294 kts 264°
2026-05-09 00:24 30.18328 -92.23484 27908 ft 295 kts 264°
2026-05-09 00:24 30.18220 -92.25851 27908 ft 296 kts 264°
2026-05-09 00:24 30.18110 -92.28230 27903 ft 296 kts 264°
2026-05-09 00:24 30.18006 -92.30594 27906 ft 295 kts 264°
2026-05-09 00:25 30.17904 -92.32967 27899 ft 296 kts 264°
2026-05-09 00:25 30.17789 -92.35340 27903 ft 296 kts 264°
2026-05-09 00:25 30.17660 -92.37708 27899 ft 295 kts 263°
2026-05-09 00:25 30.17541 -92.40065 27903 ft 295 kts 264°
2026-05-09 00:26 30.17443 -92.42435 27900 ft 295 kts 265°
2026-05-09 00:26 30.17361 -92.44809 27902 ft 296 kts 264°
2026-05-09 00:26 30.17269 -92.47180 27900 ft 296 kts 264°
2026-05-09 00:26 30.17160 -92.49550 27898 ft 296 kts 264°
2026-05-09 00:27 30.17041 -92.51920 27902 ft 297 kts 264°
2026-05-09 00:27 30.16922 -92.54302 27902 ft 298 kts 264°
2026-05-09 00:27 30.16810 -92.56684 27900 ft 297 kts 264°
2026-05-09 00:27 30.16699 -92.59068 27892 ft 297 kts 264°
2026-05-09 00:28 30.16587 -92.61448 27892 ft 297 kts 264°
2026-05-09 00:28 30.16473 -92.63820 27891 ft 296 kts 264°
2026-05-09 00:28 30.16355 -92.66203 27899 ft 298 kts 263°
2026-05-09 00:28 30.16237 -92.68588 27894 ft 298 kts 263°
2026-05-09 00:29 30.16120 -92.70967 27894 ft 297 kts 264°
2026-05-09 00:29 30.16004 -92.73345 27894 ft 299 kts 264°
2026-05-09 00:29 30.15886 -92.75750 27893 ft 299 kts 264°
2026-05-09 00:29 30.15770 -92.78140 27889 ft 298 kts 264°
2026-05-09 00:30 30.15655 -92.80534 27894 ft 299 kts 264°
2026-05-09 00:30 30.15539 -92.82926 27899 ft 299 kts 264°
2026-05-09 00:30 30.15422 -92.85320 27895 ft 299 kts 264°
2026-05-09 00:30 30.15302 -92.87713 27894 ft 300 kts 264°
2026-05-09 00:31 30.15181 -92.90115 27891 ft 300 kts 264°
2026-05-09 00:31 30.15061 -92.92510 27895 ft 299 kts 264°
2026-05-09 00:31 30.14943 -92.94899 27895 ft 298 kts 264°
2026-05-09 00:31 30.14823 -92.97289 27899 ft 299 kts 264°
2026-05-09 00:32 30.14701 -92.99696 27901 ft 299 kts 264°
2026-05-09 00:32 30.14582 -93.02089 27897 ft 299 kts 263°
2026-05-09 00:32 30.14462 -93.04483 27897 ft 299 kts 264°
2026-05-09 00:32 30.14342 -93.06878 27900 ft 300 kts 264°
2026-05-09 00:33 30.14219 -93.09278 27900 ft 300 kts 264°
2026-05-09 00:33 30.14088 -93.11676 27899 ft 299 kts 263°
2026-05-09 00:33 30.13924 -93.14059 27898 ft 299 kts 262°
2026-05-09 00:33 30.13731 -93.16449 27900 ft 299 kts 262°
2026-05-09 00:34 30.13538 -93.18838 27898 ft 300 kts 263°
2026-05-09 00:34 30.13356 -93.21229 27895 ft 299 kts 263°
2026-05-09 00:34 30.13190 -93.23618 27899 ft 299 kts 263°
2026-05-09 00:34 30.13015 -93.26014 27898 ft 300 kts 263°
2026-05-09 00:35 30.12832 -93.28410 27897 ft 300 kts 262°
2026-05-09 00:35 30.12648 -93.30805 27896 ft 300 kts 262°
2026-05-09 00:35 30.12463 -93.33208 27896 ft 302 kts 263°
2026-05-09 00:35 30.12278 -93.35627 27895 ft 302 kts 262°
2026-05-09 00:36 30.12095 -93.38039 27895 ft 301 kts 262°
2026-05-09 00:36 30.11911 -93.40443 27891 ft 301 kts 263°
2026-05-09 00:36 30.11727 -93.42844 27892 ft 300 kts 263°
2026-05-09 00:36 30.11548 -93.45242 27894 ft 301 kts 262°
2026-05-09 00:37 30.11365 -93.47643 27892 ft 301 kts 263°
2026-05-09 00:37 30.11180 -93.50043 27888 ft 300 kts 262°
2026-05-09 00:37 30.10992 -93.52442 27885 ft 301 kts 262°
2026-05-09 00:37 30.10805 -93.54849 27883 ft 301 kts 262°
2026-05-09 00:38 30.10619 -93.57254 27884 ft 300 kts 262°
2026-05-09 00:38 30.10430 -93.59676 27890 ft 308 kts 262°
2026-05-09 00:38 30.10235 -93.62178 27887 ft 319 kts 262°
2026-05-09 00:38 30.10029 -93.64775 27886 ft 330 kts 263°
2026-05-09 00:39 30.09820 -93.67454 27886 ft 341 kts 262°
2026-05-09 00:39 30.09605 -93.70212 27890 ft 350 kts 262°
2026-05-09 00:39 30.09385 -93.73025 27885 ft 354 kts 262°
2026-05-09 00:39 30.09165 -93.75848 27886 ft 352 kts 262°
2026-05-09 00:40 30.08946 -93.78649 27887 ft 350 kts 262°
2026-05-09 00:40 30.08726 -93.81444 27889 ft 351 kts 262°
2026-05-09 00:40 30.08504 -93.84240 27886 ft 351 kts 262°
2026-05-09 00:41 30.08132 -93.88914 27883 ft 350 kts 262°
2026-05-09 00:41 30.07906 -93.91708 27884 ft 350 kts 262°
2026-05-09 00:41 30.07683 -93.94508 27883 ft 350 kts 262°
2026-05-09 00:41 30.07459 -93.97296 27883 ft 350 kts 262°
2026-05-09 00:42 30.07232 -94.00097 27884 ft 351 kts 262°
2026-05-09 00:42 30.07005 -94.02890 27879 ft 350 kts 262°
2026-05-09 00:42 30.06780 -94.05677 27886 ft 350 kts 262°
2026-05-09 00:42 30.06555 -94.08465 27880 ft 349 kts 262°
2026-05-09 00:43 30.06332 -94.11252 27873 ft 348 kts 262°
2026-05-09 00:43 30.06110 -94.14028 27872 ft 348 kts 262°
2026-05-09 00:43 30.05883 -94.16813 27871 ft 350 kts 262°
2026-05-09 00:43 30.05654 -94.19590 27867 ft 348 kts 262°
2026-05-09 00:44 30.05423 -94.22361 27866 ft 347 kts 262°
2026-05-09 00:44 30.05192 -94.25132 27868 ft 348 kts 262°
2026-05-09 00:44 30.04963 -94.27906 27868 ft 347 kts 262°
2026-05-09 00:44 30.04735 -94.30670 27865 ft 347 kts 262°
2026-05-09 00:45 30.04506 -94.33435 27865 ft 347 kts 262°
2026-05-09 00:45 30.04275 -94.36205 27863 ft 348 kts 262°
2026-05-09 00:45 30.04042 -94.38965 27859 ft 346 kts 262°
2026-05-09 00:45 30.03809 -94.41713 27855 ft 344 kts 262°
2026-05-09 00:46 30.03576 -94.44458 27856 ft 346 kts 262°
2026-05-09 00:46 30.03344 -94.47217 27853 ft 346 kts 262°
2026-05-09 00:46 30.03112 -94.49973 27856 ft 346 kts 262°
2026-05-09 00:46 30.02879 -94.52723 27855 ft 345 kts 262°
2026-05-09 00:47 30.02649 -94.55469 27856 ft 344 kts 262°
2026-05-09 00:47 30.02420 -94.58205 27855 ft 343 kts 262°
2026-05-09 00:47 30.02185 -94.60943 27854 ft 344 kts 262°
2026-05-09 00:47 30.01947 -94.63686 27854 ft 345 kts 261°
2026-05-09 00:48 30.01706 -94.66431 27857 ft 343 kts 261°
2026-05-09 00:48 30.01469 -94.69161 27858 ft 342 kts 261°
2026-05-09 00:48 30.01237 -94.71875 27863 ft 341 kts 261°
2026-05-09 00:48 30.01006 -94.74598 27861 ft 342 kts 261°
2026-05-09 00:49 30.00771 -94.77329 27859 ft 343 kts 261°
2026-05-09 00:49 30.00534 -94.80058 27866 ft 342 kts 261°
2026-05-09 00:49 30.00301 -94.82769 27865 ft 340 kts 261°
2026-05-09 00:49 30.00069 -94.85483 27862 ft 340 kts 261°
2026-05-09 00:50 29.99834 -94.88197 27864 ft 341 kts 261°
2026-05-09 00:50 29.99595 -94.90915 27869 ft 342 kts 261°
2026-05-09 00:50 29.99358 -94.93628 27865 ft 340 kts 261°
2026-05-09 00:50 29.99121 -94.96328 27865 ft 339 kts 261°
2026-05-09 00:51 29.98882 -94.99034 27866 ft 340 kts 261°
2026-05-09 00:51 29.98643 -95.01745 27866 ft 341 kts 261°
2026-05-09 00:51 29.98407 -95.04465 27867 ft 341 kts 261°
2026-05-09 00:51 29.98171 -95.07181 27861 ft 340 kts 261°
2026-05-09 00:52 29.97931 -95.09887 27863 ft 341 kts 261°
2026-05-09 00:52 29.97697 -95.12600 27869 ft 341 kts 261°
2026-05-09 00:52 29.97453 -95.15330 27869 ft 339 kts 261°
2026-05-09 00:52 29.97210 -95.18030 27870 ft 339 kts 261°
2026-05-09 00:53 29.96965 -95.20735 27868 ft 341 kts 261°
2026-05-09 00:53 29.96715 -95.23450 27870 ft 341 kts 261°
2026-05-09 00:53 29.96461 -95.26160 27864 ft 339 kts 261°
2026-05-09 00:53 29.96209 -95.28852 27867 ft 338 kts 261°
2026-05-09 00:54 29.95960 -95.31557 27872 ft 339 kts 261°
2026-05-09 00:54 29.95701 -95.34250 27881 ft 338 kts 259°
2026-05-09 00:54 29.95297 -95.36901 27873 ft 335 kts 255°
2026-05-09 00:54 29.94761 -95.39508 27868 ft 335 kts 253°
2026-05-09 00:55 29.94177 -95.42109 27861 ft 337 kts 254°
2026-05-09 00:55 29.93595 -95.44718 27872 ft 337 kts 254°
2026-05-09 00:55 29.93028 -95.47325 27872 ft 336 kts 254°
2026-05-09 00:55 29.92472 -95.49931 27864 ft 336 kts 255°
2026-05-09 00:56 29.91916 -95.52551 27870 ft 337 kts 255°
2026-05-09 00:56 29.91363 -95.55171 27864 ft 337 kts 254°
2026-05-09 00:56 29.90811 -95.57785 27867 ft 336 kts 255°
2026-05-09 00:56 29.90260 -95.60391 27866 ft 336 kts 255°
2026-05-09 00:57 29.89709 -95.63000 27869 ft 337 kts 255°
2026-05-09 00:57 29.89157 -95.65611 27863 ft 336 kts 254°
2026-05-09 00:57 29.88601 -95.68229 27864 ft 336 kts 254°
2026-05-09 00:57 29.88046 -95.70836 27863 ft 336 kts 255°
2026-05-09 00:58 29.87663 -95.73489 27860 ft 339 kts 262°
2026-05-09 00:58 29.87637 -95.76196 27862 ft 340 kts 266°
2026-05-09 00:58 29.87769 -95.78921 27861 ft 342 kts 269°
2026-05-09 00:58 29.87928 -95.81651 27862 ft 343 kts 268°
2026-05-09 00:59 29.88035 -95.84387 27859 ft 341 kts 267°
2026-05-09 00:59 29.88100 -95.87114 27858 ft 341 kts 266°
2026-05-09 00:59 29.88150 -95.89830 27852 ft 339 kts 266°
2026-05-09 00:59 29.88196 -95.92541 27854 ft 340 kts 266°
2026-05-09 01:00 29.88238 -95.95262 27852 ft 341 kts 266°
2026-05-09 01:00 29.88279 -95.97983 27849 ft 341 kts 266°
2026-05-09 01:00 29.88319 -96.00710 27847 ft 340 kts 266°
2026-05-09 01:00 29.88357 -96.03429 27841 ft 339 kts 266°
2026-05-09 01:01 29.88398 -96.06148 27843 ft 340 kts 266°
2026-05-09 01:01 29.88432 -96.08867 27841 ft 340 kts 266°
2026-05-09 01:01 29.88467 -96.11596 27837 ft 340 kts 267°
2026-05-09 01:01 29.88505 -96.14308 27829 ft 339 kts 266°
2026-05-09 01:02 29.88549 -96.17019 27834 ft 340 kts 266°
2026-05-09 01:02 29.88591 -96.19740 27832 ft 342 kts 266°
2026-05-09 01:02 29.88631 -96.22476 27829 ft 341 kts 267°
2026-05-09 01:02 29.88671 -96.25188 27825 ft 339 kts 266°
2026-05-09 01:03 29.88708 -96.27907 27836 ft 340 kts 266°
2026-05-09 01:03 29.88743 -96.30642 27845 ft 346 kts 266°
2026-05-09 01:03 29.88773 -96.33453 27837 ft 357 kts 266°
2026-05-09 01:03 29.88803 -96.36351 27838 ft 367 kts 266°
2026-05-09 01:04 29.88837 -96.39318 27836 ft 372 kts 266°
2026-05-09 01:04 29.88874 -96.42290 27835 ft 371 kts 266°
2026-05-09 01:04 29.88914 -96.45263 27834 ft 369 kts 266°
2026-05-09 01:04 29.88951 -96.48216 27836 ft 367 kts 266°
2026-05-09 01:05 29.88986 -96.51149 27837 ft 367 kts 267°
2026-05-09 01:05 29.89016 -96.54092 27843 ft 367 kts 266°
2026-05-09 01:05 29.89075 -96.59956 27846 ft 367 kts 266°
2026-05-09 01:06 29.89105 -96.62899 27800 ft 366 kts 266°
2026-05-09 01:06 29.89136 -96.65812 27555 ft 361 kts 266°
2026-05-09 01:06 29.89167 -96.68664 27300 ft 353 kts 266°
2026-05-09 01:06 29.89199 -96.71463 27052 ft 346 kts 266°
2026-05-09 01:07 29.89227 -96.74214 26807 ft 343 kts 266°
2026-05-09 01:07 29.89253 -96.76957 26567 ft 344 kts 266°
2026-05-09 01:07 29.89276 -96.79713 26320 ft 346 kts 266°
2026-05-09 01:07 29.89298 -96.82489 26075 ft 347 kts 267°
2026-05-09 01:08 29.89321 -96.85270 25830 ft 345 kts 267°
2026-05-09 01:08 29.89345 -96.88021 25589 ft 343 kts 267°
2026-05-09 01:08 29.89368 -96.90755 25346 ft 342 kts 267°
2026-05-09 01:08 29.89389 -96.93485 25099 ft 342 kts 267°
2026-05-09 01:09 29.89408 -96.96212 24856 ft 341 kts 268°
2026-05-09 01:09 29.89427 -96.98931 24608 ft 340 kts 267°
2026-05-09 01:09 29.89445 -97.01639 24364 ft 338 kts 268°
2026-05-09 01:09 29.89464 -97.04337 24126 ft 337 kts 267°
2026-05-09 01:10 29.89482 -97.07033 23880 ft 337 kts 268°
2026-05-09 01:10 29.89500 -97.09732 23638 ft 337 kts 268°
2026-05-09 01:10 29.89520 -97.12426 23402 ft 336 kts 268°
2026-05-09 01:10 29.89539 -97.15108 23159 ft 335 kts 268°
2026-05-09 01:11 29.89556 -97.17778 22914 ft 333 kts 268°
2026-05-09 01:11 29.89571 -97.20437 22668 ft 332 kts 269°
2026-05-09 01:11 29.89586 -97.23085 22420 ft 332 kts 268°
2026-05-09 01:11 29.89600 -97.25752 22180 ft 333 kts 269°
2026-05-09 01:12 29.89613 -97.28422 21936 ft 335 kts 269°
2026-05-09 01:12 29.89626 -97.31096 21689 ft 334 kts 269°
2026-05-09 01:12 29.89640 -97.33765 21444 ft 334 kts 269°
2026-05-09 01:12 29.89653 -97.36440 21198 ft 335 kts 269°
2026-05-09 01:13 29.89665 -97.39123 20953 ft 335 kts 269°
2026-05-09 01:13 29.89678 -97.41809 20707 ft 335 kts 269°
2026-05-09 01:13 29.89689 -97.44479 20463 ft 334 kts 269°
2026-05-09 01:13 29.89696 -97.47155 20223 ft 335 kts 269°
2026-05-09 01:14 29.89705 -97.49829 19971 ft 334 kts 269°
2026-05-09 01:14 29.89717 -97.52498 19716 ft 334 kts 270°
2026-05-09 01:14 29.89729 -97.55161 19472 ft 333 kts 269°
2026-05-09 01:14 29.89737 -97.57834 19213 ft 334 kts 270°
2026-05-09 01:15 29.89741 -97.60524 18963 ft 333 kts 270°
2026-05-09 01:15 29.89745 -97.63180 18693 ft 330 kts 270°
2026-05-09 01:15 29.89749 -97.65799 18318 ft 324 kts 270°
2026-05-09 01:15 29.89753 -97.68381 17872 ft 322 kts 270°
2026-05-09 01:16 29.89757 -97.70957 17410 ft 321 kts 270°
2026-05-09 01:16 29.89762 -97.73501 17031 ft 317 kts 270°
2026-05-09 01:16 29.89767 -97.76032 16594 ft 315 kts 270°
2026-05-09 01:17 29.89774 -97.81057 15666 ft 314 kts 269°
2026-05-09 01:17 29.89757 -97.83556 15211 ft 313 kts 267°
2026-05-09 01:17 29.89565 -97.86038 14755 ft 312 kts 260°
2026-05-09 01:17 29.89058 -97.88450 14291 ft 311 kts 253°
2026-05-09 01:18 29.88348 -97.90796 13828 ft 311 kts 250°
2026-05-09 01:18 29.87566 -97.93109 13362 ft 310 kts 249°
2026-05-09 01:18 29.86779 -97.95411 13024 ft 306 kts 249°
2026-05-09 01:18 29.86011 -97.97675 12672 ft 303 kts 249°
2026-05-09 01:19 29.85253 -97.99927 12245 ft 302 kts 249°
2026-05-09 01:19 29.84500 -98.02181 11790 ft 302 kts 249°
2026-05-09 01:19 29.83748 -98.04434 11330 ft 302 kts 250°
2026-05-09 01:19 29.83002 -98.06683 10872 ft 301 kts 250°
2026-05-09 01:20 29.82260 -98.08924 10488 ft 298 kts 250°
2026-05-09 01:20 29.81531 -98.11122 10281 ft 289 kts 250°
2026-05-09 01:20 29.80829 -98.13232 10188 ft 277 kts 250°
2026-05-09 01:20 29.80156 -98.15267 10001 ft 269 kts 250°
2026-05-09 01:21 29.79499 -98.17270 9644 ft 268 kts 250°
2026-05-09 01:21 29.78841 -98.19269 9294 ft 267 kts 250°
2026-05-09 01:21 29.78181 -98.21254 8958 ft 265 kts 250°
2026-05-09 01:21 29.77528 -98.23224 8620 ft 263 kts 251°
2026-05-09 01:22 29.77017 -98.25239 8229 ft 262 kts 257°
2026-05-09 01:22 29.76648 -98.27280 7857 ft 260 kts 259°
2026-05-09 01:22 29.76312 -98.29309 7479 ft 259 kts 259°
2026-05-09 01:22 29.75982 -98.31343 7102 ft 260 kts 259°
2026-05-09 01:23 29.75654 -98.33381 6718 ft 259 kts 259°
2026-05-09 01:23 29.75330 -98.35404 6327 ft 257 kts 259°
2026-05-09 01:23 29.75011 -98.37415 6029 ft 254 kts 259°
2026-05-09 01:23 29.74697 -98.39386 6022 ft 249 kts 259°
2026-05-09 01:24 29.74382 -98.41365 6000 ft 255 kts 259°
2026-05-09 01:24 29.74065 -98.43381 6000 ft 257 kts 259°
2026-05-09 01:24 29.73749 -98.45406 5995 ft 257 kts 259°
2026-05-09 01:24 29.73440 -98.47417 6010 ft 254 kts 259°
2026-05-09 01:25 29.73138 -98.49380 5989 ft 242 kts 259°
2026-05-09 01:25 29.72857 -98.51217 5986 ft 227 kts 259°
2026-05-09 01:25 29.72585 -98.53003 5766 ft 228 kts 259°
2026-05-09 01:25 29.72314 -98.54796 5373 ft 227 kts 259°
2026-05-09 01:26 29.72047 -98.56563 4988 ft 223 kts 259°
2026-05-09 01:26 29.71783 -98.58320 4607 ft 223 kts 259°
2026-05-09 01:26 29.71519 -98.60083 4227 ft 225 kts 259°
2026-05-09 01:26 29.71259 -98.61849 3840 ft 223 kts 259°
2026-05-09 01:27 29.71016 -98.63577 3451 ft 214 kts 260°
2026-05-09 01:27 29.70786 -98.65215 3078 ft 204 kts 259°
2026-05-09 01:27 29.70572 -98.66771 2991 ft 193 kts 259°
2026-05-09 01:27 29.70367 -98.68314 3008 ft 199 kts 260°
2026-05-09 01:28 29.70159 -98.69911 3010 ft 201 kts 259°
2026-05-09 01:28 29.69960 -98.71470 2995 ft 193 kts 259°
2026-05-09 01:28 29.69764 -98.72980 3002 ft 190 kts 259°
2026-05-09 01:28 29.69566 -98.74490 3006 ft 191 kts 259°
2026-05-09 01:29 29.69363 -98.75996 3001 ft 190 kts 259°
2026-05-09 01:29 29.69161 -98.77494 3000 ft 190 kts 260°
2026-05-09 01:29 29.68958 -98.78989 2993 ft 189 kts 259°
2026-05-09 01:29 29.68746 -98.80483 2991 ft 190 kts 255°
2026-05-09 01:30 29.68128 -98.81781 3002 ft 183 kts 219°
2026-05-09 01:30 29.66990 -98.82323 2996 ft 178 kts 179°
2026-05-09 01:30 29.65856 -98.81869 2999 ft 174 kts 137°
2026-05-09 01:30 29.65302 -98.80667 2999 ft 175 kts 96°
2026-05-09 01:31 29.65609 -98.79319 3007 ft 181 kts 58°
2026-05-09 01:31 29.66400 -98.78184 2998 ft 181 kts 52°
2026-05-09 01:31 29.67188 -98.77079 2997 ft 176 kts 53°
2026-05-09 01:31 29.67953 -98.75979 3005 ft 176 kts 54°
2026-05-09 01:32 29.68720 -98.74874 3004 ft 176 kts 57°
2026-05-09 01:32 29.69122 -98.73587 2999 ft 172 kts 94°
2026-05-09 01:32 29.68800 -98.72271 3018 ft 173 kts 114°
2026-05-09 01:32 29.68327 -98.71004 2996 ft 171 kts 114°
2026-05-09 01:33 29.67872 -98.69750 2997 ft 170 kts 113°
2026-05-09 01:33 29.67415 -98.68489 3001 ft 171 kts 113°
2026-05-09 01:33 29.66959 -98.67222 2997 ft 171 kts 113°
2026-05-09 01:33 29.66506 -98.65961 2994 ft 169 kts 112°
2026-05-09 01:34 29.66146 -98.64663 2996 ft 171 kts 110°
2026-05-09 01:34 29.65632 -98.63439 2991 ft 169 kts 124°
2026-05-09 01:34 29.64926 -98.62356 2996 ft 170 kts 129°
2026-05-09 01:34 29.64170 -98.61308 2991 ft 170 kts 130°
2026-05-09 01:35 29.63402 -98.60289 2991 ft 168 kts 131°
2026-05-09 01:35 29.62623 -98.59276 2992 ft 170 kts 131°
2026-05-09 01:35 29.61835 -98.58258 2957 ft 172 kts 131°
2026-05-09 01:35 29.61034 -98.57225 2752 ft 173 kts 131°
2026-05-09 01:36 29.60243 -98.56207 2526 ft 169 kts 131°
2026-05-09 01:36 29.59464 -98.55206 2305 ft 168 kts 131°
2026-05-09 01:36 29.58684 -98.54204 2081 ft 168 kts 131°
2026-05-09 01:36 29.57904 -98.53204 1857 ft 167 kts 130°
2026-05-09 01:37 29.57132 -98.52212 1646 ft 167 kts 130°
2026-05-09 01:37 29.56356 -98.51219 1432 ft 167 kts 130°
2026-05-09 01:37 29.55581 -98.50225 1223 ft 166 kts 130°
2026-05-09 01:37 29.54826 -98.49258 1028 ft 160 kts 130°
2026-05-09 01:38 29.54090 -98.48316 815 ft 157 kts 129°
2026-05-09 01:38 29.53493 -98.47542 794 ft 95 kts 131°
2026-05-09 01:38 29.53186 -98.47148 790 ft 45 kts 135°
2026-05-09 01:38 29.52999 -98.46913 785 ft 31 kts 131°
2026-05-09 01:39 29.52878 -98.46771 785 ft 16 kts 152°
2026-05-09 01:39 29.52814 -98.46817 786 ft 8 kts 252°
2026-05-09 01:39 29.52822 -98.46857 787 ft 2 kts 306°
2026-05-09 01:39 29.52825 -98.46862 787 ft 1 kts 306°
2026-05-09 01:40 29.52829 -98.46868 787 ft 0 kts 306°
2026-05-09 01:40 29.52831 -98.46872 787 ft 2 kts 304°
2026-05-09 01:40 29.52858 -98.46917 787 ft 10 kts 307°
2026-05-09 01:40 29.52856 -98.47003 787 ft 10 kts 236°
2026-05-09 01:41 29.52811 -98.47037 788 ft 5 kts 180°
2026-05-09 01:41 29.52796 -98.47035 788 ft 1 kts 172°
2026-05-09 01:41 29.52794 -98.47035 788 ft 0 kts 172°